THOR ABLESTAR DEB, 558

Orbit data source: Space-Track

THOR ABLESTAR DEB, 558 is space debris in LEO originally from a launch on Thu, 29 Jun 1961 UTC launched from the Air Force Eastern Test Range (AFETR). Debris objects in space refer to the collection of defunct objects orbiting the Earth. Examples of debris include non-operational satellites, rocket bodies, and fragments generated from explosions, collisions, or faulty payload assembly.

Loading next visibility...
THOR ABLESTAR DEB details
Identifier
558, 1961-015GQ
Orbit
LEO
Last TLE update5 hours ago
Origin
Flag of USUSAF SSD (US)
ManufacturerUnknown
MissionSpacecraft
Bus & MotorUnknown
MassUnknown
Launch date (UTC)
1961-06-29 (64 years ago)
Launch vehicleUnknown
Launch site
Air Force Eastern Test Range (AFETR)
Object type
Payload
Rocket body
Debris
Shape & HBRUnknown
Radar Cross SectionSmall (<0.1 m²)

Expand to show TLE details & history

TLE from 5 hours ago
0 THOR ABLESTAR DEB
1 00558U 61015GQ  25018.56630299  .00000164  00000-0  55923-3 0  9995
2 00558  65.6969 176.4219 0480224 304.5905 132.0555 12.86314687983453
Epoch: 2025-01-18T13:35Z
Definitive object data (Epoch: 2025-01-18T13:35:28.578Z)
Latitude64.14068°
Longitude-77.65836°
Altitude1,583.182 km
Speed6.964 km/s
True Right ascension16h 17m 41s
True Declination64° 01' 10"
Sunlit
Object was in daylight at TLE epoch
Visualization TLE readout
Latitude-35.46372°
Longitude-164.76708°
Altitude972.468 km
Speed7.534 km/s
Apparent Right ascension09h 08m 15s
Apparent Declination-39° 34' 29"
Sunlit
Object is in daylight
Visualization observer readout
Local Sidereal Time19:28:02
Azimuth262.914° W
Elevation-70.797°
Doppler factor1
Orbital elements
Apogee altitude1,684.21 km
Perigee altitude945.345 km
Semi-major axis7,692.914 km
Eccentricity0.0480224
Inclination65.6969°
RAAN176.4219°
Arg. of periapsis304.5905°
True anomaly135.9802°
Mean anomaly132.0555°
Eccentric anomaly134.03363°
Mean motion3.21667 °/min
BSTAR0.00055923
Orbital period111.92 mins
Loading maneuver chart data...

THOR ABLESTAR DEB Visibility forecast

Observer location: undefined°, undefined

Span
Click to sort rows by Start time (UTC) header in descending order
Start Az.
Max El. time (UTC)
Max El. Az.
Max El.
End time (UTC)
End Az.
16 mins2025-01-18 19:16:50.139Z341.469° N2025-01-18 19:24:50.139Z38.066° NE27.088°2025-01-18 19:32:50.139Z95.404° ESE
18 mins2025-01-18 21:12:50.139Z328.952° NNW2025-01-18 21:21:50.139Z286.355° WNW44.992°2025-01-18 21:30:50.139Z152.699° SSE
12 mins2025-01-18 23:10:50.139Z297.652° NW2025-01-18 23:15:50.139Z263.822° W20.724°2025-01-18 23:22:50.139Z215.816° SW
14 mins2025-01-19 11:40:50.139Z193.214° SSW2025-01-19 11:46:50.139Z108.944° ESE42.903°2025-01-19 11:54:50.139Z35.432° NE
13 mins2025-01-19 13:37:50.139Z266.666° W2025-01-19 13:42:50.139Z316.327° NNW28.884°2025-01-19 13:50:50.139Z19.359° NNE
8 mins2025-01-19 15:38:50.139Z323.814° NNW2025-01-19 15:41:50.139Z344.42° N14.078°2025-01-19 15:46:50.139Z16.642° NNE
9 mins2025-01-19 17:38:50.139Z351.573° N2025-01-19 17:42:50.139Z18.157° NNE15.679°2025-01-19 17:47:50.139Z49.913° ENE
|